Melbourne, FL

9:41 AM EST on February 12, 2016 (GMT -0500)
Melbourne International

Weather History for KMLB - December, 2013

Change the Weather History Date:

Thursday, December 19, 2013

  Actual Average Record
Temperature  
Mean Temperature 61 °F 62 °F  
Max Temperature 75 °F 73 °F 84 °F (1948)
Min Temperature 46 °F 52 °F 32 °F (1981)
Degree Days  
Heating Degree Days 4 5  
Month to date heating degree days 25 71  
Since 1 July heating degree days 39 113  
Cooling Degree Days 0 2  
Month to date cooling degree days 85 51  
Year to date cooling degree days 3682 3246  
Growing Degree Days 10 (Base 50)    
Moisture  
Dew Point 52 °F    
Average Humidity 71    
Maximum Humidity 93    
Minimum Humidity 49    
Precipitation  
Precipitation 0.00 in 0.10 in 2.16 in (1940)
Month to date precipitation 1.44 1.62  
Year to date precipitation 42.12 51.05  
Sea Level Pressure  
Sea Level Pressure 30.24 in    
Wind  
Wind Speed 5 mph (NNE)    
Max Wind Speed 12 mph    
Max Gust Speed 15 mph    
Visibility 10 miles    
Events      
T = Trace of Precipitation, MM = Missing Value Source: NWS Daily Summary

Daily Weather History Graph

Daily Weather History Graph

Search for Another Location

Airport or City:

Trip Planner

Search our weather history database for the weather conditions in past years. The results will help you decide how hot, cold, wet, or windy it might be!

Date:

Astronomy

Dec. 19, 2013 Rise Set
Actual Time 7:09 AM EST 5:30 PM EST
Civil Twilight 6:43 AM EST 5:56 PM EST
Nautical Twilight 6:13 AM EST 6:25 PM EST
Astronomical Twilight 5:45 AM EST 6:54 PM EST
Moon 7:45 PM EST (12/19) 8:35 AM EST (12/19)
Length of Visible Light 11h 13m
Length of Day
10h 21m
Waning Gibbous, 95% of the Moon is Illuminated
Dec 19
Waning Gibbous
Dec 25
Last Quarter
Jan 1
New
Jan 7
First Quarter
Jan 15
Full

Hourly Weather History & Observations

Time (EST) Temp. Windchill Dew Point Humidity Pressure Visibility Wind Dir Wind Speed Gust Speed Precip Events Conditions
12:53 AM 48.9 °F - 46.0 °F 90% 30.27 in 10.0 mi NNW 5.8 mph - N/A   Clear
1:53 AM 50.0 °F - 46.0 °F 86% 30.25 in 10.0 mi NNW 5.8 mph - N/A   Clear
2:53 AM 48.0 °F - 45.0 °F 89% 30.25 in 10.0 mi WNW 5.8 mph - N/A   Clear
3:53 AM 48.0 °F - 45.0 °F 89% 30.25 in 10.0 mi WNW 4.6 mph - N/A   Clear
4:53 AM 48.9 °F - 46.0 °F 90% 30.24 in 10.0 mi WNW 4.6 mph - N/A   Clear
5:53 AM 46.9 °F - 45.0 °F 93% 30.25 in 10.0 mi WNW 5.8 mph - N/A   Clear
6:53 AM 46.0 °F 43.9 °F 44.1 °F 93% 30.25 in 10.0 mi WNW 4.6 mph - N/A   Clear
7:53 AM 50.0 °F - 48.0 °F 93% 30.26 in 10.0 mi West 4.6 mph - N/A   Clear
8:53 AM 59.0 °F - 53.1 °F 81% 30.27 in 10.0 mi NNW 3.5 mph - N/A   Clear
9:53 AM 68.0 °F - 57.0 °F 68% 30.28 in 10.0 mi North 3.5 mph - N/A   Clear
10:53 AM 72.0 °F - 55.9 °F 57% 30.28 in 10.0 mi East 5.8 mph - N/A   Scattered Clouds
11:53 AM 73.9 °F - 55.0 °F 52% 30.26 in 10.0 mi East 9.2 mph - N/A   Scattered Clouds
12:53 PM 73.9 °F - 54.0 °F 50% 30.24 in 10.0 mi East 6.9 mph - N/A   Clear
1:53 PM 75.0 °F - 55.0 °F 50% 30.22 in 10.0 mi East 8.1 mph - N/A   Scattered Clouds
2:53 PM 73.0 °F - 55.0 °F 53% 30.20 in 10.0 mi ESE 8.1 mph - N/A   Partly Cloudy
3:53 PM 73.0 °F - 54.0 °F 51% 30.20 in 10.0 mi East 8.1 mph - N/A   Scattered Clouds
4:53 PM 72.0 °F - 55.0 °F 55% 30.21 in 10.0 mi East 6.9 mph - N/A   Partly Cloudy
5:53 PM 70.0 °F - 54.0 °F 57% 30.21 in 10.0 mi ESE 4.6 mph - N/A   Partly Cloudy
6:53 PM 68.0 °F - 55.0 °F 63% 30.21 in 10.0 mi East 3.5 mph - N/A   Clear
7:53 PM 61.0 °F - 54.0 °F 78% 30.22 in 10.0 mi Calm Calm - N/A   Clear
8:53 PM 61.0 °F - 55.0 °F 81% 30.23 in 10.0 mi Calm Calm - N/A   Mostly Cloudy
9:53 PM 61.0 °F - 55.0 °F 81% 30.23 in 10.0 mi Calm Calm - N/A   Scattered Clouds
10:53 PM 64.0 °F - 57.9 °F 80% 30.23 in 10.0 mi Calm Calm - N/A   Scattered Clouds
11:53 PM 60.1 °F - 57.0 °F 90% 30.22 in 10.0 mi Calm Calm - N/A   Clear